Regional Weather Roundup
Issued by NWS Little Rock, AR

Home | Current Version | Previous Version | Text Only | Print | Product List | Glossary Off
Versions: 1 2 3 4 5 6 7 8 9 10 11 12 13 14 15 16 17 18 19 20 21 22 23 24 25 26 27 28 29 30 31 32 33 34 35 36 37 38 39 40 41 42 43 44 45 46 47 48 49 50

000
ASUS44 KLZK 272305
RWRLZK

WEATHER ROUNDUP FOR ARKANSAS
NATIONAL WEATHER SERVICE LITTLE ROCK AR
600 PM CDT WED MAY 27 2015

NOTE: "FAIR" INDICATES FEW OR NO CLOUDS BELOW 12,000 FEET WITH NO
SIGNIFICANT WEATHER AND/OR OBSTRUCTIONS TO VISIBILITY.

ARZ001-003-010-029-280000-
NORTHWEST ARKANSAS

CITY           SKY/WX    TMP DP  RH WIND       PRES   REMARKS
FAYETTEVILLE   MOSUNNY   80  67  64 SW8       30.06F
FORT SMITH     PTSUNNY   83  65  54 W10       30.02F HX  85
HARRISON       CLOUDY    73  63  70 S9        30.10R
BENTONVILLE    CLOUDY    82  64  54 S6        30.07F
ROGERS         CLOUDY    82  65  56 N3        30.07F
SILOAM SPGS    PTSUNNY   81  63  54 MISG        N/A
HIGHFILL       CLOUDY    82  67  60 S3        30.05F
SPRINGDALE     MOSUNNY   82  66  57 W8        30.08F HX  85
$$

ARZ004-005-016-280000-
NORTH CENTRAL ARKANSAS

CITY           SKY/WX    TMP DP  RH WIND       PRES   REMARKS
BATESVILLE     MOSUNNY   82  68  61 SW5       30.05F HX  85
FLIPPIN          N/A     79  68  69 CALM      30.04F
MTN HOME       CLOUDY    79  68  69 SE3       30.05F
$$

ARZ040-041-280000-
WEST CENTRAL ARKANSAS

CITY           SKY/WX    TMP DP  RH WIND       PRES   REMARKS
MENA           MOSUNNY   86  64  48 CALM      30.06F HX  87
MOUNT IDA      SUNNY     84  64  50 CALM      30.04S HX  85
$$

ARZ009-017-025-026-028-280000-
NORTHEAST ARKANSAS

CITY           SKY/WX    TMP DP  RH WIND       PRES   REMARKS
CORNING          N/A     81  68  65 SW10      30.06F
JONESBORO      CLOUDY    77  68  73 S5        30.06F
NEWPORT        PTSUNNY   82  68  62 S7        30.06F HX  85
WALNUT RIDGE   PTSUNNY   81  66  61 S9        30.05F
BLYTHEVILLE    CLOUDY    77  69  76 SW8       30.08S
$$

ARZ022-023-033-042-044-280000-
CENTRAL ARKANSAS

CITY           SKY/WX    TMP DP  RH WIND       PRES   REMARKS
LITTLE ROCK    MOSUNNY   84  65  52 S8        30.05S HX  86
N LITTLE ROCK  MOSUNNY   83  71  67 E3        30.05S HX  87
JACKSONVILLE   MOSUNNY   84  68  59 SE3       30.05S HX  87
SEARCY         MOSUNNY   83  68  60 CALM      30.07S HX  86
HOT SPRINGS    SUNNY     84  65  52 S6        30.05F HX  86
RUSSELLVILLE   MOSUNNY   84  69  60 VRB3      30.03F HX  88
CLINTON        FAIR      81  72  74 CALM      30.06F
$$

ARZ036-280000-
EAST ARKANSAS

CITY           SKY/WX    TMP DP  RH WIND       PRES   REMARKS
WEST MEMPHIS   CLOUDY    75  69  81 S8        30.08S
$$

ARZ050-053-066-070-073-280000-
SOUTHWEST ARKANSAS

CITY           SKY/WX    TMP DP  RH WIND       PRES   REMARKS
ARKADELPHIA    MOCLDY    88  70  55 VRB3      30.04F HX  93
CAMDEN         MOSUNNY   86  66  51 CALM      30.04F HX  88
TEXARKANA      MOSUNNY   84  67  56 SE3       30.04F HX  86
EL DORADO      PTSUNNY   83  68  60 SW5       30.06S HX  86
DE QUEEN       SUNNY     85  65  51 MISG      30.02F HX  86
$$

ARZ056-057-069-280000-
SOUTHEAST ARKANSAS

CITY           SKY/WX    TMP DP  RH WIND       PRES   REMARKS
PINE BLUFF     PTSUNNY   84  68  58 S6        30.06S HX  87
STUTTGART      CLOUDY    81  68  65 SE9       30.08R
MONTICELLO     PTSUNNY   78  71  79 SE7       30.06F

$$




USA.gov is the U.S. government's official web portal to all federal, state and local government web resources and services.